TimeCDT,TemperatureF,Dew PointF,Humidity,Sea Level PressureIn,VisibilityMPH,Wind Direction,Wind SpeedMPH,Gust SpeedMPH,PrecipitationIn,Events,Conditions,WindDirDegrees,DateUTC
12:53 AM,61.0,54.0,78,30.07,10.0,South,6.9,-,N/A,,Clear,170,2012-10-04 05:53:00
1:53 AM,60.1,53.1,78,30.08,10.0,South,5.8,-,N/A,,Clear,170,2012-10-04 06:53:00
2:53 AM,57.0,53.1,87,30.09,10.0,SE,4.6,-,N/A,,Clear,140,2012-10-04 07:53:00
3:53 AM,55.9,53.1,90,30.10,10.0,Calm,Calm,-,N/A,,Clear,0,2012-10-04 08:53:00
4:53 AM,55.0,53.1,93,30.12,10.0,Calm,Calm,-,N/A,,Clear,0,2012-10-04 09:53:00
5:53 AM,54.0,52.0,93,30.14,10.0,SSE,3.5,-,N/A,,Clear,150,2012-10-04 10:53:00
6:53 AM,53.1,52.0,96,30.17,9.0,SE,4.6,-,N/A,,Clear,130,2012-10-04 11:53:00
7:53 AM,55.0,53.1,93,30.19,8.0,SE,4.6,-,N/A,,Clear,140,2012-10-04 12:53:00
8:53 AM,60.1,55.0,83,30.19,10.0,SE,5.8,-,N/A,,Clear,130,2012-10-04 13:53:00
9:53 AM,66.9,57.0,70,30.19,10.0,SE,8.1,-,N/A,,Clear,140,2012-10-04 14:53:00
10:53 AM,73.0,57.0,57,30.17,10.0,SE,9.2,-,N/A,,Clear,130,2012-10-04 15:53:00
11:53 AM,79.0,54.0,42,30.16,10.0,SSE,11.5,-,N/A,,Clear,160,2012-10-04 16:53:00
12:53 PM,80.1,52.0,38,30.15,10.0,South,10.4,-,N/A,,Clear,170,2012-10-04 17:53:00
1:53 PM,82.0,52.0,35,30.13,10.0,SSE,10.4,-,N/A,,Clear,160,2012-10-04 18:53:00
2:53 PM,81.0,51.1,35,30.11,10.0,SE,11.5,18.4,N/A,,Clear,140,2012-10-04 19:53:00
3:53 PM,81.0,53.1,38,30.10,10.0,SSE,11.5,17.3,N/A,,Clear,160,2012-10-04 20:53:00
4:53 PM,80.1,54.0,40,30.09,10.0,South,10.4,-,N/A,,Clear,170,2012-10-04 21:53:00
5:53 PM,77.0,55.0,47,30.10,10.0,SSE,11.5,-,N/A,,Clear,160,2012-10-04 22:53:00
6:53 PM,72.0,55.0,55,30.11,10.0,South,5.8,-,N/A,,Clear,180,2012-10-04 23:53:00
7:53 PM,68.0,55.9,65,30.12,10.0,South,4.6,-,N/A,,Clear,180,2012-10-05 00:53:00
8:53 PM,69.1,55.0,61,30.12,10.0,South,5.8,-,N/A,,Clear,180,2012-10-05 01:53:00
9:53 PM,64.9,55.0,70,30.14,10.0,NNW,6.9,-,N/A,,Clear,330,2012-10-05 02:53:00
10:53 PM,64.0,57.0,78,30.15,10.0,Calm,Calm,-,N/A,,Scattered Clouds,0,2012-10-05 03:53:00
11:53 PM,64.9,57.0,75,30.12,10.0,Calm,Calm,-,N/A,,Overcast,0,2012-10-05 04:53:00